Wind_Speed
8 9 11 13 15 18 20 20 19 19 19 19 18 17 15 14 13 12 11 10 10 9 9 10 10 10 11 11 10 10 10 10 10 10 10 10 10 10 11 11 11 11 11 11 10 9 9 8 9 10 9 8 8 8 8 9 11 13 14 15 17 17 16 16 16 15 14 14 14 14 15 15 14 14 15 14 14 13 13 12 14 16 15 14 13
9 11 12 14 17 19 18 18 18 18 18 17 16 15 14 13 12 11 10 9 9 9 9 9 10 10 10 11 11 10 10 10 10 10 10 10 10 10 10 10 10 11 12 11 10 9 8 7 8 8 8 8 7 7 7 8 9 11 13 15 16 17 17 16 16 15 13 13 13 14 15 15 15 16 15 15 15 14 14 14 13 14 15 15 14
10 12 14 16 17 17 17 18 19 18 17 16 14 13 12 11 10 9 9 9 9 9 9 9 10 10 11 11 11 11 10 10 10 11 11 11 11 10 10 9 9 10 11 11 10 9 8 7 7 7 7 7 7 6 6 6 7 8 9 12 14 16 17 17 17 16 14 13 14 15 15 15 15 17 17 16 16 15 15 15 14 14 13 13 13
11 13 15 15 16 17 19 19 17 16 15 13 12 11 10 9 8 8 8 8 8 9 9 10 10 11 11 11 11 10 10 10 11 11 12 12 12 11 11 10 10 10 10 10 10 9 8 7 6 6 6 7 7 6 6 6 6 6 6 8 11 14 16 17 18 17 16 15 15 15 16 16 15 16 17 17 17 17 17 16 15 15 13 11 10
12 13 14 14 16 18 18 17 15 14 13 12 11 10 9 8 8 8 8 8 9 10 10 10 10 11 11 11 11 12 12 13 13 13 13 13 13 13 12 12 11 11 11 11 11 10 8 7 6 6 6 6 6 6 6 6 6 6 5 5 7 9 11 13 15 17 17 17 16 16 17 17 15 15 17 18 18 18 18 18 17 16 15 12 10
12 12 13 15 16 16 15 14 12 12 11 11 10 9 8 8 8 8 9 9 10 10 10 10 10 10 11 11 12 13 14 14 15 15 14 14 14 14 14 13 13 12 12 12 12 11 10 9 7 6 6 5 6 6 5 5 6 7 6 5 6 7 8 10 11 14 15 17 17 16 16 17 16 14 15 18 19 18 19 19 18 17 15 14 12
12 12 14 15 15 14 12 11 11 10 10 9 8 8 8 8 9 9 9 9 9 9 8 8 9 10 11 12 13 14 15 15 15 15 15 15 15 15 14 14 14 13 13 13 13 12 11 10 9 8 7 6 6 5 5 6 7 7 7 6 6 6 8 9 10 11 13 15 17 17 17 17 18 16 15 16 19 19 19 19 19 18 17 15 14
11 12 14 13 12 11 10 10 10 9 8 8 7 7 8 8 8 8 8 8 8 7 8 8 9 11 12 13 14 15 15 16 16 16 16 17 17 16 16 15 14 14 14 13 13 12 12 12 10 9 8 8 7 6 6 6 6 7 8 7 7 6 7 8 9 10 11 13 15 16 17 18 18 19 17 17 19 20 19 20 20 20 18 16 15
11 12 12 11 10 9 9 9 9 8 8 7 7 7 7 7 7 8 7 7 8 8 9 10 11 12 13 14 14 15 16 16 16 17 17 17 18 18 17 17 16 16 16 15 14 13 13 12 12 11 10 9 8 7 7 7 7 7 8 8 8 8 7 6 7 8 9 11 13 13 15 18 18 18 18 18 20 21 20 20 21 21 20 18 17
11 11 10 8 8 8 8 8 8 8 7 7 6 6 6 6 7 7 7 7 8 9 10 12 13 14 14 15 15 15 16 17 17 18 18 18 19 19 20 20 19 18 18 17 16 16 14 13 12 11 10 9 8 8 7 7 7 8 8 8 9 9 8 7 7 7 7 9 10 11 13 16 17 17 18 19 20 21 21 20 20 21 21 20 19
10 9 7 7 7 8 8 7 7 7 6 6 6 6 6 6 7 7 8 9 9 9 10 11 12 12 13 14 15 16 17 18 19 19 20 20 21 21 21 21 21 20 19 19 18 17 16 14 13 11 11 10 9 8 8 7 7 7 7 8 9 9 9 9 8 6 6 7 8 9 11 13 14 15 17 18 19 20 20 20 20 20 21 21 21
8 7 5 6 7 7 6 6 6 7 6 6 6 6 6 6 7 7 8 9 9 9 9 10 10 11 12 12 13 14 17 19 20 21 22 22 21 21 20 20 20 20 20 20 19 18 17 16 14 12 10 9 9 8 8 8 7 7 7 8 8 9 9 10 9 7 6 6 6 7 8 10 12 13 15 16 17 18 19 20 20 19 20 21 20
6 5 5 5 5 5 5 6 6 6 6 6 6 6 6 7 8 8 8 9 8 8 8 9 9 10 11 11 11 12 15 19 21 22 22 22 21 20 20 20 21 21 21 21 20 19 18 17 15 13 11 10 9 8 8 8 7 7 7 7 8 9 9 10 9 9 7 5 5 5 6 8 10 11 12 12 14 15 17 18 18 18 19 19 19
4 4 4 4 3 4 5 6 6 6 6 6 6 6 6 7 8 8 8 8 8 7 8 9 9 10 10 11 11 11 14 18 21 22 22 22 21 20 20 21 22 22 22 22 21 20 18 17 15 13 11 10 9 9 8 8 8 7 7 7 7 7 8 9 9 9 9 7 7 7 6 6 8 8 9 9 8 10 13 15 15 15 16 17 18
3 3 3 3 3 4 5 6 5 5 6 6 6 6 7 7 7 7 7 7 7 7 9 9 9 11 11 11 11 12 13 17 20 21 21 21 21 20 20 21 22 22 22 22 22 21 19 17 14 13 12 10 10 10 9 8 8 7 7 7 7 7 7 8 8 9 9 9 8 8 8 7 7 7 8 7 6 6 7 10 12 12 13 15 15
2 2 3 4 5 5 6 6 5 6 6 7 7 6 6 6 6 7 7 7 7 8 9 9 10 11 11 12 13 13 14 17 20 21 20 20 21 20 19 20 22 22 21 22 22 20 19 17 14 12 12 11 10 10 10 9 8 7 7 7 7 7 6 7 8 8 9 9 8 8 8 8 7 7 7 8 6 5 4 5 8 10 11 12 13
1 2 4 6 6 6 7 7 6 7 7 7 7 6 6 6 5 6 6 6 6 7 8 9 10 11 11 12 13 14 15 17 20 21 20 20 21 20 19 20 21 22 22 22 22 19 17 15 13 12 13 12 11 11 10 9 8 7 6 6 6 7 6 6 7 7 8 8 7 7 8 8 8 7 7 7 7 5 4 4 5 7 9 10 11
3 4 6 7 7 7 8 7 7 7 7 7 6 5 5 5 5 5 5 5 6 8 8 9 10 10 11 12 13 14 15 17 19 21 20 20 21 19 18 19 21 22 23 23 22 20 17 14 13 13 13 12 12 11 10 9 9 8 6 5 5 6 6 5 6 6 6 7 7 6 7 7 7 7 7 7 7 6 5 3 4 5 6 7 9
4 5 6 7 7 7 8 7 7 7 7 6 5 4 5 5 5 6 6 7 8 9 9 9 10 11 12 13 13 14 15 17 18 20 20 20 20 19 17 18 20 22 23 22 21 21 19 16 14 13 13 12 12 11 10 10 9 9 7 6 5 5 5 5 5 5 5 6 5 5 5 6 6 6 7 7 7 6 5 3 4 4 5 5 7
5 6 7 7 7 7 7 7 6 6 6 5 5 5 5 6 6 7 7 8 9 10 11 11 11 12 12 13 14 14 16 16 18 19 19 19 20 19 17 17 19 21 22 22 21 20 19 17 15 14 14 13 12 11 10 10 10 9 8 7 6 5 5 4 4 4 5 5 4 4 4 3 4 4 5 5 6 6 4 4 5 6 5 4 4
5 6 6 6 6 7 7 6 6 6 6 6 5 6 6 7 8 8 8 9 10 11 11 11 12 12 12 12 13 14 15 16 17 18 19 19 19 19 17 17 19 21 21 22 21 19 18 17 15 15 14 13 12 10 9 10 10 10 9 9 8 6 5 4 3 3 4 4 4 3 2 2 2 2 3 4 5 5 5 5 6 6 5 4 4
5 5 6 6 6 6 6 5 5 6 6 6 6 7 7 8 8 9 9 9 10 11 11 11 12 12 12 12 13 13 14 15 16 17 18 18 18 18 17 17 20 21 21 21 20 19 17 17 15 14 13 12 11 10 9 9 9 10 10 10 9 7 6 5 3 2 2 4 4 3 2 1 1 2 2 3 4 4 5 5 5 5 5 6 6
5 5 5 5 5 5 5 5 5 6 6 7 7 8 8 8 8 9 9 10 10 11 11 11 11 12 12 12 12 13 14 15 15 16 17 17 17 17 18 19 21 21 20 20 20 19 18 16 15 13 12 11 11 10 9 8 8 10 11 10 9 8 7 5 4 3 2 3 4 4 3 1 0 1 2 3 3 4 5 6 6 5 5 6 7
5 5 5 5 5 5 4 5 5 6 6 7 8 8 8 7 8 10 10 10 10 10 11 11 11 11 11 11 12 13 14 14 14 15 17 17 17 17 18 19 20 21 20 20 20 20 18 16 15 13 12 10 10 10 8 7 7 9 9 9 8 7 6 5 4 4 3 2 3 3 3 2 1 0 1 2 2 3 4 5 6 6 6 7 7
5 5 5 5 4 4 5 5 5 6 6 7 8 9 9 9 10 11 10 11 11 10 9 9 10 11 11 11 11 12 13 13 13 14 15 16 17 17 17 19 19 20 20 20 20 20 19 17 15 13 11 10 10 10 9 9 8 8 8 8 8 7 6 4 3 3 3 3 2 2 3 3 2 1 1 2 2 3 3 4 4 5 6 7 8
5 5 5 4 4 4 4 5 5 6 7 7 8 9 10 11 12 11 11 10 10 9 8 8 9 10 10 10 11 12 13 13 13 14 15 15 16 16 17 18 19 19 19 20 20 20 19 18 17 14 12 12 11 10 9 9 8 7 7 8 8 7 6 4 4 4 4 4 3 3 3 2 2 1 1 2 3 3 3 4 4 5 5 6 7
5 4 4 4 4 4 5 5 5 6 7 8 8 9 9 10 10 10 10 10 9 7 7 7 8 9 9 10 11 11 12 12 12 12 13 14 15 16 16 18 19 18 19 19 20 20 19 18 18 16 15 13 11 9 8 9 8 7 7 8 8 7 6 5 5 5 5 5 5 5 4 4 3 2 1 2 2 3 4 4 4 5 5 6 7
5 4 4 4 4 5 5 6 6 6 7 8 9 10 10 10 9 8 8 8 7 7 6 6 6 7 8 9 10 10 11 11 11 12 12 13 14 15 16 18 19 18 18 18 19 19 19 18 17 16 15 15 14 12 11 10 9 7 6 7 6 6 6 5 5 4 4 5 5 5 5 4 3 3 2 2 1 2 3 4 4 4 4 5 6
4 4 4 4 4 4 5 6 7 6 7 8 10 11 11 10 9 8 7 7 7 7 7 6 6 7 8 8 10 10 10 11 12 13 14 14 15 16 16 18 18 18 18 18 19 20 19 17 17 17 16 16 15 14 12 12 10 8 7 5 5 5 4 4 4 4 4 4 4 3 3 3 3 3 2 2 2 2 2 3 3 4 5 5 5
4 3 2 3 3 4 5 6 7 7 8 10 11 12 11 10 9 8 7 8 8 8 9 8 7 8 7 8 9 11 11 12 14 15 16 16 17 17 18 19 19 18 18 18 19 20 18 15 16 18 17 16 15 14 13 13 11 9 8 6 4 4 4 4 4 4 4 4 4 3 3 3 2 2 2 2 2 2 2 2 3 3 4 5 5
3 2 1 2 3 4 5 6 7 8 9 10 11 12 11 9 9 8 8 9 10 11 12 11 11 10 9 9 10 11 13 14 15 16 17 17 18 18 18 19 19 19 19 18 18 18 16 14 16 18 17 16 15 14 13 13 12 10 9 8 6 5 4 4 4 5 5 5 5 5 5 4 3 2 2 1 1 2 2 3 3 4 4 5 6
2 1 1 2 3 4 4 5 7 8 9 9 10 11 10 8 7 8 10 11 12 13 12 13 13 13 12 10 11 12 13 14 15 16 17 18 18 18 18 19 19 19 19 18 17 16 14 14 16 18 17 16 16 15 13 13 12 11 10 9 8 6 6 4 4 4 5 5 5 5 6 5 4 3 2 1 1 1 2 3 3 4 5 6 6
0 1 2 3 4 4 5 6 7 8 9 9 9 10 10 8 6 7 9 11 13 13 12 13 14 15 14 12 12 12 13 13 14 15 16 17 18 18 18 19 19 18 18 18 17 15 14 14 16 18 18 16 16 15 14 13 12 11 11 10 9 8 7 6 5 5 5 5 5 5 5 5 5 4 3 2 2 2 2 3 3 4 5 6 7
3 3 4 4 5 5 6 7 8 8 9 9 9 10 10 8 7 7 8 10 12 13 13 14 15 17 16 14 12 12 12 12 13 14 15 16 17 18 18 19 18 17 17 17 17 16 15 15 15 16 17 17 17 16 15 14 14 13 12 11 10 9 8 7 6 6 5 5 5 5 5 5 5 4 4 3 2 2 2 3 3 3 4 6 7
5 6 6 6 6 6 7 7 8 9 9 9 9 10 10 9 8 7 8 10 11 12 13 13 15 16 17 16 14 12 11 11 12 13 14 15 16 17 18 17 16 16 17 17 17 17 16 16 15 15 15 17 18 17 16 15 15 15 15 14 12 10 9 8 8 7 6 6 6 5 5 5 5 5 4 4 3 3 3 3 3 3 3 4 6
6 7 8 8 8 8 8 8 9 9 9 9 9 10 11 10 9 9 9 9 10 11 12 13 14 15 16 16 16 14 11 11 12 13 14 15 16 17 17 15 14 15 16 16 16 17 17 16 15 15 15 16 17 17 18 17 16 16 16 15 13 11 10 9 9 8 7 7 6 6 6 5 5 5 5 5 5 4 4 4 3 3 3 4 4
7 8 9 9 9 9 9 10 10 10 9 9 10 10 10 10 11 10 10 10 11 12 12 12 13 13 13 14 15 14 12 12 13 13 14 15 16 16 16 14 12 13 15 15 15 17 17 16 16 16 16 15 15 15 16 15 16 17 17 15 12 11 10 10 10 9 8 7 7 7 7 6 6 6 6 6 6 6 5 5 5 4 4 4 3
8 9 9 9 9 9 10 10 11 11 10 10 11 11 11 11 12 11 10 11 12 13 13 12 12 12 12 13 14 14 13 13 14 14 15 15 15 16 16 14 11 12 13 14 15 15 16 16 16 16 16 15 15 15 14 13 13 14 15 16 15 13 11 10 10 9 9 8 8 8 8 8 7 7 7 6 7 7 7 6 6 5 5 4 4
9 10 10 10 10 10 10 10 11 11 11 10 11 12 12 13 13 12 12 12 13 14 14 13 13 12 12 12 13 13 13 13 13 14 14 15 15 16 15 14 11 12 13 14 14 15 15 15 15 15 15 15 15 14 14 13 13 13 13 15 16 16 13 12 10 10 9 9 8 8 8 8 8 8 7 7 7 7 7 7 7 6 5 5 4
10 11 11 11 10 10 11 11 11 11 11 11 12 13 13 14 14 13 13 14 14 14 14 14 14 13 12 12 13 13 13 12 12 12 14 15 15 15 15 13 12 12 13 14 14 15 15 15 15 14 14 14 14 13 13 13 14 14 13 13 15 17 15 13 11 10 9 9 8 8 8 9 9 9 8 8 8 7 8 8 7 7 6 6 5
10 11 11 11 11 11 11 11 11 11 11 12 13 14 14 14 14 14 14 15 15 15 15 15 15 14 13 12 12 13 13 11 11 12 13 14 15 15 15 13 12 12 13 14 14 15 15 14 14 13 13 14 13 13 13 13 13 14 13 12 14 17 17 14 13 12 10 9 9 8 9 8 9 9 9 9 8 8 8 9 8 7 7 7 6
11 11 12 12 12 12 12 12 12 12 12 12 13 14 14 15 15 15 15 15 15 15 15 14 14 14 14 13 13 13 12 11 11 12 13 14 15 15 15 14 13 12 12 13 14 14 14 14 13 13 14 14 13 12 13 13 13 14 13 12 13 16 17 16 14 13 11 10 10 9 9 8 8 10 10 9 9 9 9 9 8 8 8 8 8
10 11 12 12 13 13 14 13 14 14 14 14 14 15 15 15 15 15 15 15 15 14 14 14 14 14 14 14 14 13 12 11 11 12 13 13 14 15 15 15 15 14 13 13 13 14 14 14 13 12 13 13 13 11 12 13 14 14 14 12 13 16 17 16 15 14 12 11 10 9 9 9 9 10 10 9 9 10 9 9 9 9 9 9 9
10 11 11 12 13 14 14 14 14 15 16 16 16 16 16 15 15 15 14 14 14 14 14 14 14 14 14 14 13 12 11 11 11 12 12 13 13 14 15 15 15 15 15 14 13 13 13 13 13 12 12 12 12 11 11 12 13 14 14 14 14 16 17 16 15 14 12 11 11 10 9 9 9 9 9 9 9 9 9 9 9 9 9 10 9
11 11 11 12 13 14 14 15 15 16 16 17 17 17 16 16 15 15 15 14 14 15 15 15 14 15 14 13 11 10 11 11 12 12 12 12 13 14 14 14 14 14 15 15 14 13 13 13 13 13 12 11 11 11 11 11 12 13 14 13 13 16 17 16 14 13 12 11 10 10 9 9 9 8 8 8 8 8 8 8 9 9 9 10 9
13 13 13 13 14 14 15 15 15 16 16 17 17 17 16 16 15 16 16 15 15 16 16 16 15 15 14 13 11 11 12 12 12 12 12 12 13 14 14 14 14 15 15 15 15 15 13 13 13 13 12 11 10 10 11 11 11 12 13 13 12 14 16 16 14 12 12 11 10 9 9 9 8 7 7 8 8 8 8 8 8 9 9 9 9
15 14 14 14 15 15 15 16 16 16 17 17 17 17 17 18 18 18 17 17 16 16 16 16 15 15 15 14 13 13 13 13 13 13 13 13 14 15 15 16 16 17 16 15 15 16 15 14 13 13 12 11 11 10 11 11 11 12 12 12 11 13 15 15 13 12 10 9 9 9 9 8 7 6 6 7 7 7 8 8 8 8 9 8 9
15 15 15 15 15 16 16 16 17 17 17 17 18 19 19 19 20 20 19 18 18 17 16 15 15 16 16 16 15 15 14 14 14 14 14 14 15 16 16 16 17 17 18 17 16 16 16 16 15 14 13 12 11 10 10 11 11 12 12 11 10 11 13 13 12 11 10 8 8 8 8 8 7 7 6 6 6 6 7 7 7 8 8 8 8
16 16 16 16 16 17 17 17 17 18 18 18 18 18 18 18 20 20 18 17 17 17 16 16 16 16 17 17 17 16 15 15 15 15 15 15 16 16 16 17 17 16 17 18 18 18 17 17 16 15 14 12 11 10 10 11 11 11 11 10 11 11 12 12 11 11 9 8 8 7 7 7 7 7 7 7 6 6 7 7 7 7 8 8 8
17 17 17 17 18 18 18 18 17 17 18 17 17 17 16 16 17 17 15 15 16 17 16 17 17 17 17 17 18 17 16 16 17 18 19 19 18 16 17 18 19 18 18 19 19 19 18 17 17 16 15 13 12 11 10 10 10 10 10 10 11 11 11 11 11 11 10 9 9 8 7 7 7 7 7 7 6 7 7 7 7 7 8 8 8
18 18 17 18 18 19 19 18 17 17 17 17 17 16 16 15 14 13 13 14 16 16 17 17 18 18 18 17 17 17 17 18 20 20 21 22 22 20 19 20 21 21 21 21 21 20 19 18 17 17 16 14 13 12 11 11 10 10 10 10 10 10 10 10 10 11 10 10 9 8 7 7 7 7 7 7 7 7 8 8 8 8 8 8 8
Wind_Direction
317 309 307 309 312 316 319 323 328 333 336 338 341 343 345 347 348 347 348 349 350 350 349 348 347 351 355 358 360 359 357 355 352 349 347 346 343 340 338 336 333 329 325 325 327 327 322 313 303 299 299 296 288 280 271 260 249 241 235 232 233 234 233 228 227 233 238 242 246 249 250 248 245 243 239 236 232 230 232 231 228 232 236 237 236
316 312 313 314 316 318 323 331 338 341 341 342 345 348 351 352 355 357 360 2 1 358 357 357 358 2 5 7 8 7 7 6 3 2 2 1 359 355 350 345 340 333 330 331 335 337 333 320 307 302 302 300 296 291 282 273 263 252 241 234 232 234 237 235 229 228 230 235 238 241 246 246 243 242 240 237 234 230 230 233 233 233 236 238 239
315 313 313 314 317 325 335 342 345 344 343 346 349 353 357 360 4 7 10 11 9 7 7 8 11 12 13 14 14 13 13 13 14 12 11 10 7 5 2 356 349 341 336 336 339 342 339 328 317 309 305 304 303 301 297 290 281 271 255 243 236 235 238 239 234 229 227 229 230 232 239 243 242 242 240 236 235 233 231 233 234 235 237 238 238
310 309 312 319 329 340 345 344 344 344 345 351 357 1 5 10 15 17 20 23 21 19 19 19 20 20 20 20 19 18 19 20 22 19 16 16 13 10 8 2 357 350 343 342 345 345 340 334 327 316 308 305 306 305 307 307 300 292 278 257 245 239 239 241 239 234 230 228 227 227 229 232 235 239 238 234 234 233 232 233 234 235 237 237 234
307 312 321 333 341 344 343 341 343 347 353 2 8 9 12 20 27 30 35 35 31 28 25 23 23 23 23 23 21 21 21 20 19 17 16 16 13 11 9 4 360 354 348 345 345 346 345 341 334 322 310 305 304 305 308 310 302 296 288 271 257 247 245 244 240 238 235 231 229 230 228 224 225 235 235 230 231 234 232 231 233 235 236 234 229
317 326 333 339 341 341 339 340 348 358 6 13 14 14 19 26 35 41 43 40 35 30 25 22 23 23 24 25 23 22 21 18 14 12 11 11 10 10 8 4 0 356 350 346 343 343 344 343 338 332 321 308 301 298 301 302 296 293 291 283 270 258 253 251 247 245 242 238 237 239 236 227 223 232 234 225 227 232 231 230 232 233 234 233 229
328 332 334 337 338 338 339 346 360 11 18 21 22 22 25 31 38 42 44 42 37 31 26 25 26 25 25 26 25 22 19 16 13 12 11 10 9 10 9 6 3 359 354 349 344 340 338 337 336 335 329 319 308 299 295 294 292 293 296 296 285 268 259 257 257 257 253 249 247 249 249 241 233 236 237 227 226 231 230 229 232 232 232 231 227
328 330 334 337 337 339 347 358 12 23 28 30 30 27 29 33 37 40 41 41 38 32 28 27 26 24 24 24 25 22 19 17 16 15 14 12 9 9 10 10 9 5 360 354 347 341 336 333 331 331 330 327 322 313 302 295 292 293 296 299 297 286 273 263 258 260 260 256 254 253 253 251 244 241 242 236 232 233 231 230 232 232 231 230 225
326 330 333 336 339 349 1 11 25 35 38 39 37 33 32 31 33 36 37 38 38 33 28 27 25 23 24 24 24 24 22 19 18 17 16 14 12 10 9 9 10 10 5 358 352 347 340 333 328 325 325 324 324 320 311 303 297 294 296 298 297 294 292 284 269 262 262 260 259 256 252 251 249 244 243 240 236 235 232 229 231 231 229 227 225
326 330 333 339 351 5 11 20 35 43 45 47 45 40 35 31 32 33 31 36 40 33 26 25 25 24 24 23 22 23 22 20 17 15 13 11 8 7 6 5 6 8 6 0 356 353 345 337 329 323 321 319 320 319 314 308 301 294 293 293 292 293 297 297 286 273 269 265 262 260 256 255 253 249 244 241 238 236 234 231 230 230 228 226 225
327 330 335 351 10 17 17 26 42 50 55 57 53 45 37 32 35 35 34 39 43 37 26 21 22 23 22 20 20 21 20 17 13 9 6 4 2 1 1 1 0 2 2 360 358 355 348 340 335 329 324 319 318 319 317 312 306 297 291 287 286 289 292 294 294 285 274 271 267 263 262 262 260 255 249 244 241 239 237 234 231 229 228 227 225
327 332 348 9 21 22 24 36 50 57 61 61 57 51 40 39 45 48 49 48 43 37 31 23 20 20 20 20 21 19 15 13 9 6 4 2 1 0 359 358 358 357 356 355 354 354 351 345 341 337 332 326 320 321 321 317 310 301 293 287 282 282 284 288 294 295 287 277 271 267 265 264 265 263 257 250 245 240 238 237 235 231 231 229 227
329 346 8 19 26 29 36 49 56 59 62 62 61 57 52 55 59 58 57 56 48 39 35 30 23 20 19 18 18 13 9 9 7 5 4 4 3 3 0 359 357 355 353 350 349 351 352 349 345 341 339 338 333 329 326 322 314 303 294 289 284 280 280 282 287 292 295 289 280 280 274 266 268 270 268 261 251 242 240 240 238 234 233 232 230
339 9 19 25 44 52 54 59 59 60 64 66 68 67 64 66 66 60 55 55 53 43 35 30 23 20 17 14 13 8 3 6 7 4 4 6 4 3 2 359 358 354 351 349 349 350 351 351 349 346 346 349 346 341 335 326 317 309 300 294 288 282 279 279 279 279 282 282 284 291 290 273 268 273 278 277 264 246 240 238 237 234 232 232 232
5 24 31 49 70 73 72 68 62 63 68 72 75 72 68 68 69 67 58 49 43 34 26 23 18 14 12 8 8 4 358 2 6 3 3 4 2 1 1 1 360 357 354 352 352 351 352 355 354 349 349 353 351 345 341 334 324 315 307 299 292 285 277 273 272 271 272 274 276 281 284 278 272 273 277 280 273 256 241 235 233 231 228 228 228
18 39 78 85 81 82 83 76 69 69 72 77 78 74 71 70 69 69 59 39 30 24 19 17 12 8 6 2 2 0 355 357 2 1 1 2 0 360 1 1 2 2 359 356 354 353 354 356 358 353 351 353 352 348 344 339 332 320 308 300 294 288 279 272 272 271 272 273 273 275 278 278 277 275 274 276 275 267 244 228 225 223 223 223 222
59 95 96 88 82 81 82 78 74 75 77 80 81 76 74 70 64 62 55 34 25 22 16 12 6 1 359 357 357 357 352 351 355 358 359 0 359 359 360 1 3 4 2 359 358 358 357 358 359 357 355 353 352 352 349 344 340 330 314 304 298 290 282 277 276 276 278 277 273 270 269 270 272 271 269 271 272 267 244 216 214 214 216 219 217
132 114 94 86 83 80 78 74 73 79 85 86 84 77 68 58 47 45 42 28 18 15 10 5 2 359 355 352 353 355 351 348 351 355 357 359 360 359 358 359 1 4 4 2 1 1 3 4 4 359 355 352 351 353 357 354 349 343 334 323 312 300 289 282 277 275 276 274 270 264 258 257 258 258 258 259 263 267 257 226 211 208 211 217 215
133 111 93 85 80 76 74 70 71 80 84 83 78 64 49 41 29 24 26 18 8 4 1 359 359 358 354 350 351 353 351 347 348 351 355 358 359 359 358 357 360 3 5 5 5 5 4 5 5 360 354 352 352 353 358 1 358 354 350 344 333 321 310 298 286 278 274 271 270 267 258 252 248 246 247 246 248 259 262 238 218 206 201 209 212
128 105 93 84 76 72 70 66 69 75 75 70 61 45 35 29 21 14 12 9 3 359 357 357 358 357 353 350 350 351 350 347 345 348 352 356 358 360 360 357 358 3 6 7 8 8 6 5 4 360 354 351 352 354 359 4 3 359 356 354 350 345 337 323 304 292 286 281 279 277 269 261 251 245 245 243 239 242 247 242 231 218 205 197 197
121 103 94 85 77 74 71 68 68 69 63 55 45 34 26 20 15 10 5 1 0 358 355 355 356 354 352 352 351 349 348 346 343 345 350 354 358 1 360 355 357 3 8 9 8 7 7 7 4 358 354 351 351 355 4 10 9 5 3 359 353 351 354 353 337 313 302 299 298 301 302 288 261 244 238 234 231 227 228 236 241 235 223 207 191
114 100 90 82 77 73 71 69 65 58 52 44 34 28 22 15 11 7 2 358 358 358 356 354 353 353 352 353 352 349 347 346 344 344 348 354 359 3 0 356 357 3 8 9 8 7 8 9 6 358 353 354 354 357 8 16 16 14 10 3 356 354 358 3 4 354 332 317 313 316 330 332 228 218 214 215 218 214 211 218 228 232 226 217 215
109 100 91 82 75 69 66 64 54 48 43 36 28 24 18 11 6 2 358 357 356 356 355 354 353 353 351 350 349 347 347 348 346 346 350 355 360 3 2 359 358 2 7 9 9 8 8 7 5 358 352 355 1 3 8 18 24 21 14 6 1 357 355 359 8 9 1 341 329 329 340 2 135 193 209 215 214 203 202 209 211 211 212 212 220
110 106 98 87 75 64 57 49 38 34 32 26 23 18 8 1 0 357 353 351 349 349 352 352 350 350 349 347 344 342 345 348 346 346 350 354 358 2 3 1 359 360 5 10 11 9 8 7 3 357 352 355 4 6 5 12 27 27 18 10 6 1 354 357 5 6 6 3 347 341 342 350 18 155 213 227 228 212 204 208 207 205 207 205 207
109 105 97 86 71 55 45 34 25 23 21 15 12 10 3 358 356 351 346 341 338 341 349 350 345 343 343 341 339 339 343 346 346 346 349 352 355 358 358 358 358 357 1 9 12 9 8 8 5 357 350 352 360 5 6 10 21 28 24 18 16 10 2 1 11 19 21 14 4 1 353 344 338 306 242 233 239 229 214 213 210 206 208 208 205
108 102 93 81 64 49 39 28 19 16 11 5 4 4 360 354 350 345 342 337 332 337 347 345 337 336 337 336 337 342 347 349 349 349 350 352 354 356 354 354 355 355 358 6 10 8 6 7 6 1 358 358 358 360 3 7 12 22 30 32 30 23 16 19 32 42 45 44 47 52 39 14 351 317 268 241 239 236 223 217 213 206 204 206 207
112 99 87 75 58 46 36 24 19 14 3 359 1 360 352 346 341 338 335 331 329 336 343 337 331 331 332 333 339 347 350 349 348 349 351 353 354 355 354 354 356 357 357 359 3 4 3 4 4 4 4 2 356 354 0 3 3 14 28 34 37 35 30 32 41 48 54 57 60 64 64 52 33 3 320 267 250 245 239 232 225 216 206 201 203
114 94 79 65 49 40 29 20 21 16 358 351 354 351 342 337 335 331 326 328 334 338 336 334 332 333 334 335 341 348 349 347 347 349 351 354 355 354 354 355 357 359 357 355 356 357 358 2 4 4 3 2 1 1 2 358 353 359 14 25 33 34 30 30 35 39 45 50 53 57 59 56 46 29 8 340 307 272 254 250 247 242 233 217 208
114 93 74 55 39 28 16 10 10 4 349 344 346 344 337 332 334 336 333 337 345 345 343 346 346 343 341 339 339 344 348 349 350 351 352 354 354 353 353 354 356 356 355 354 354 354 355 360 2 1 2 4 5 3 358 353 350 346 346 358 13 16 15 16 13 12 16 17 21 32 38 38 40 35 21 358 338 321 286 265 258 255 254 246 234
122 102 68 34 10 3 3 358 349 341 337 336 338 341 338 332 334 343 345 342 345 349 352 353 349 346 347 340 334 338 347 350 349 350 351 351 351 351 352 352 352 352 352 354 354 352 353 357 358 357 358 360 0 360 355 352 350 343 333 331 336 339 344 349 348 347 346 342 340 343 351 2 13 14 16 8 335 311 293 281 269 259 258 254 249
134 109 58 11 346 344 347 339 326 324 328 330 333 338 338 331 331 339 343 345 348 352 354 353 348 342 341 339 336 340 345 347 347 346 346 345 345 347 349 349 350 349 350 353 354 351 351 352 353 356 357 355 354 357 356 352 350 346 338 332 324 316 317 324 331 333 328 323 322 320 317 324 339 346 356 2 336 305 283 274 267 257 256 252 246
130 89 25 335 328 334 334 321 312 313 319 322 326 331 332 330 330 334 337 343 347 350 352 351 346 339 335 338 342 343 344 344 345 344 343 341 341 343 345 347 348 347 348 351 352 351 351 348 346 350 355 353 350 351 352 352 353 353 348 342 332 320 312 310 318 322 315 309 309 309 307 309 313 321 331 333 325 314 285 270 262 257 256 256 253
205 322 314 311 318 327 322 307 302 306 312 315 320 325 330 331 331 329 330 336 341 344 345 343 341 338 337 341 344 344 343 344 344 343 342 340 340 342 345 347 347 348 351 353 352 352 352 347 342 345 350 351 350 349 348 348 350 352 351 348 342 332 319 309 306 310 308 303 298 296 297 299 298 300 304 301 299 300 285 275 270 263 258 257 256
274 284 292 300 309 316 312 305 304 306 309 311 317 324 329 328 322 320 325 331 336 339 338 336 335 334 336 341 344 345 344 343 342 342 341 340 340 341 344 348 349 349 351 353 352 352 350 345 343 344 345 346 348 349 347 345 345 346 346 345 344 340 331 317 306 302 300 295 291 286 285 287 287 285 284 278 275 279 278 278 279 273 265 260 257
279 286 288 289 292 295 294 295 299 301 303 307 313 318 324 323 315 314 320 326 329 330 329 328 327 327 331 338 342 343 344 343 341 340 340 340 339 340 344 348 348 344 344 346 348 349 348 345 344 345 344 343 345 346 346 344 343 344 344 341 339 339 336 324 311 303 295 288 284 281 275 274 275 275 272 266 259 259 263 269 277 277 273 269 262
279 280 281 281 282 283 282 286 290 293 300 309 312 315 320 322 317 313 313 315 318 319 321 322 321 320 325 332 335 337 342 344 342 341 343 343 340 339 343 348 342 334 335 339 342 344 344 343 344 346 346 345 343 342 343 341 339 340 343 341 335 332 334 330 319 308 297 287 282 277 270 265 265 265 264 261 256 253 256 265 275 282 283 280 272
275 274 273 274 276 278 280 285 289 293 303 314 318 317 317 315 313 311 305 303 308 313 315 317 317 316 319 323 325 329 337 344 345 346 348 348 343 340 343 346 339 330 330 333 336 338 340 340 343 345 346 345 342 340 339 336 331 330 334 337 332 328 329 330 324 315 306 295 286 278 270 263 258 257 257 257 255 254 256 262 272 281 286 286 281
280 279 276 274 275 277 279 284 291 297 306 314 315 312 307 305 307 306 299 298 304 309 309 309 309 311 314 314 316 323 334 343 345 345 345 345 343 341 345 349 343 333 330 329 331 335 337 337 340 343 343 343 340 336 331 327 320 316 320 326 327 326 325 326 325 321 315 305 294 284 275 266 258 255 253 252 254 256 257 262 270 278 285 288 287
284 283 282 279 277 277 278 283 290 297 303 305 304 301 300 301 302 299 295 296 301 304 304 303 302 303 306 307 310 318 327 333 337 340 342 342 339 339 343 347 344 336 330 327 328 333 335 335 337 340 342 343 338 330 324 321 315 309 310 317 322 323 323 324 324 323 318 310 300 289 279 271 263 257 252 251 253 256 258 262 268 274 282 289 291
280 281 283 284 284 285 286 289 293 296 297 297 296 294 295 297 297 293 291 295 300 301 300 298 296 297 298 300 305 312 318 321 328 338 344 346 343 340 339 339 337 334 329 325 325 328 330 332 335 338 343 345 339 327 320 319 317 314 312 312 314 316 318 319 321 321 319 312 303 290 279 272 265 260 254 250 250 254 257 261 265 269 277 284 285
278 281 285 288 290 291 290 289 289 291 291 292 291 290 290 293 293 291 291 294 297 299 298 295 293 293 293 294 300 309 314 317 324 335 342 345 346 346 343 338 335 332 329 326 325 325 323 325 329 333 340 345 342 329 319 316 316 317 316 311 309 313 316 315 315 318 318 314 306 294 284 276 269 264 260 253 248 249 252 258 263 266 269 272 271
281 284 288 291 292 291 289 287 287 289 289 287 285 285 288 292 293 291 291 293 296 297 296 292 290 292 293 293 295 304 312 319 326 334 338 340 343 346 346 344 341 335 328 324 324 323 321 319 320 325 332 340 343 335 321 313 312 316 319 313 306 308 312 312 311 313 314 313 307 299 291 282 271 265 262 256 250 249 250 254 260 262 264 267 267
286 287 289 290 291 291 290 290 290 291 291 288 285 285 289 292 292 289 290 294 296 296 293 290 289 292 294 295 295 300 308 315 322 328 331 334 339 343 344 343 343 342 337 329 324 323 321 318 316 317 324 334 340 335 321 312 309 314 319 315 304 304 309 311 309 309 311 310 308 304 297 286 274 267 265 259 254 251 250 253 258 260 262 266 267
288 290 291 291 291 291 290 290 291 291 292 291 290 289 290 290 288 285 286 290 292 290 287 287 290 290 291 294 297 300 303 307 312 318 322 326 334 340 341 339 340 341 340 337 332 327 324 320 316 312 316 326 333 330 319 311 310 311 315 314 308 307 311 311 308 307 307 306 305 305 299 288 278 272 268 263 259 256 253 253 255 259 261 264 265
287 291 296 298 297 295 293 293 293 292 291 292 292 292 292 291 289 286 285 285 285 285 284 287 290 289 288 289 292 295 298 302 306 311 314 319 329 336 337 336 337 337 336 337 336 332 327 322 318 314 311 316 324 324 316 310 308 308 310 313 311 309 312 314 312 309 306 304 305 305 300 290 281 274 271 268 264 261 259 256 252 254 257 259 260
285 289 296 302 302 301 299 299 298 296 295 295 294 293 292 292 290 287 284 281 281 284 287 288 289 288 288 287 286 287 294 299 302 305 308 313 321 328 331 332 334 333 332 334 335 334 331 325 320 316 312 311 315 316 311 307 305 304 307 312 313 310 311 316 318 313 308 305 305 305 300 292 284 278 275 274 271 266 264 261 256 254 256 256 257
286 289 294 299 302 303 303 303 301 299 296 294 292 292 293 293 292 290 287 282 279 282 285 287 286 287 289 288 284 283 287 292 295 298 303 308 315 321 326 329 331 330 328 330 333 334 333 329 321 316 311 307 305 306 304 301 300 301 303 307 310 310 313 318 320 315 309 304 303 302 300 295 292 287 280 277 276 272 269 267 264 260 258 257 257
290 291 293 295 298 301 303 304 304 300 297 294 294 295 295 295 294 292 288 283 280 280 281 282 283 286 288 288 285 283 284 289 293 296 300 305 311 316 320 323 325 324 324 326 328 329 331 330 325 318 311 305 301 298 297 296 297 299 300 302 307 312 317 321 320 315 311 306 302 302 302 300 299 299 293 285 283 281 278 276 274 270 265 262 260
292 293 292 292 293 297 300 302 302 300 297 296 296 297 297 298 297 295 290 287 286 286 286 284 283 284 286 287 287 287 287 288 292 295 297 300 306 311 313 314 316 317 319 321 322 322 324 327 326 320 312 305 297 292 290 290 291 293 295 300 306 312 318 321 319 314 311 308 304 304 304 302 300 299 295 288 285 285 281 279 278 276 273 269 265
293 294 292 290 291 294 297 299 300 299 297 296 296 297 297 298 297 293 289 287 288 289 288 287 285 285 285 286 286 286 286 290 295 299 300 302 306 310 309 308 310 312 314 316 317 317 318 321 323 321 314 306 297 288 283 282 283 284 287 295 303 309 316 320 320 316 312 309 307 306 307 305 301 299 295 289 283 279 278 276 275 275 273 272 269
293 293 291 289 290 293 295 296 297 297 296 295 295 294 293 293 294 293 291 291 291 291 291 290 289 288 287 285 284 284 289 295 299 300 299 300 303 307 307 305 305 307 309 309 310 311 313 316 319 319 315 308 300 288 277 273 274 277 282 290 299 305 311 316 318 316 313 311 310 310 310 308 305 301 297 292 285 277 274 273 272 271 270 269 269
Height
3179 3179 3178 3177 3176 3175 3173 3171 3169 3166 3164 3162 3160 3158 3156 3155 3154 3152 3151 3149 3148 3147 3146 3145 3144 3144 3143 3142 3141 3140 3139 3138 3137 3136 3135 3133 3132 3131 3130 3128 3127 3126 3125 3124 3123 3123 3122 3121 3120 3119 3119 3118 3118 3118 3117 3117 3117 3117 3117 3118 3118 3119 3119 3120 3121 3121 3122 3123 3123 3123 3123 3123 3124 3124 3125 3125 3126 3126 3127 3127 3127 3128 3129 3130 3131
3178 3177 3177 3176 3174 3173 3171 3169 3167 3164 3162 3160 3158 3157 3156 3154 3153 3152 3150 3149 3148 3147 3146 3145 3144 3144 3143 3142 3141 3140 3139 3138 3137 3135 3134 3133 3132 3131 3129 3128 3127 3125 3124 3123 3122 3122 3121 3120 3119 3118 3118 3117 3117 3117 3116 3116 3115 3115 3116 3116 3116 3117 3117 3118 3119 3119 3120 3121 3122 3122 3121 3122 3122 3123 3123 3124 3124 3125 3125 3126 3126 3127 3127 3129 3129
3177 3176 3175 3174 3173 3171 3169 3167 3165 3163 3161 3159 3158 3156 3155 3154 3153 3151 3150 3149 3148 3147 3146 3145 3145 3144 3143 3142 3141 3140 3139 3138 3137 3135 3134 3133 3132 3130 3129 3128 3126 3125 3123 3122 3121 3121 3120 3119 3118 3117 3117 3116 3115 3115 3115 3115 3115 3114 3114 3114 3115 3115 3115 3115 3116 3117 3118 3119 3120 3120 3120 3120 3120 3121 3122 3122 3123 3123 3124 3124 3124 3125 3126 3127 3128
3176 3175 3174 3173 3171 3168 3166 3165 3163 3162 3160 3159 3157 3156 3155 3154 3153 3152 3151 3150 3149 3148 3147 3146 3145 3144 3143 3142 3141 3140 3139 3138 3137 3136 3134 3133 3132 3130 3129 3128 3126 3125 3123 3122 3121 3120 3119 3118 3117 3117 3116 3115 3115 3114 3114 3114 3114 3113 3113 3113 3113 3113 3113 3114 3114 3115 3116 3117 3117 3118 3118 3118 3119 3119 3120 3121 3121 3122 3122 3123 3123 3124 3124 3126 3127
3175 3174 3172 3170 3168 3167 3165 3164 3163 3162 3160 3158 3157 3156 3155 3154 3153 3152 3151 3150 3149 3148 3147 3146 3145 3144 3143 3142 3141 3140 3139 3137 3136 3135 3134 3133 3132 3130 3129 3127 3126 3125 3123 3122 3120 3119 3118 3117 3117 3116 3115 3115 3114 3113 3113 3113 3112 3112 3112 3112 3112 3111 3112 3112 3112 3113 3113 3114 3115 3115 3115 3116 3117 3117 3118 3119 3120 3120 3121 3121 3122 3122 3123 3124 3125
3173 3172 3170 3169 3167 3166 3165 3164 3162 3161 3159 3158 3157 3156 3155 3154 3153 3152 3151 3150 3149 3148 3147 3146 3145 3144 3143 3142 3141 3140 3139 3137 3136 3135 3134 3132 3131 3130 3129 3127 3126 3124 3123 3121 3120 3119 3118 3117 3116 3115 3114 3114 3113 3113 3112 3112 3111 3111 3111 3111 3110 3110 3110 3110 3110 3111 3111 3112 3112 3113 3113 3114 3115 3115 3115 3116 3117 3118 3119 3120 3120 3121 3122 3123 3124
3171 3170 3169 3168 3166 3165 3164 3163 3161 3160 3159 3158 3157 3155 3154 3153 3152 3151 3151 3150 3149 3149 3148 3147 3146 3144 3143 3142 3141 3140 3139 3137 3136 3135 3133 3132 3131 3130 3128 3127 3125 3124 3123 3121 3120 3118 3117 3116 3115 3114 3114 3113 3113 3112 3111 3111 3110 3110 3110 3110 3109 3109 3109 3109 3109 3109 3109 3110 3110 3110 3111 3111 3112 3112 3113 3114 3115 3116 3117 3118 3118 3119 3120 3121 3122
3170 3169 3168 3167 3166 3165 3163 3162 3160 3159 3158 3157 3156 3155 3154 3153 3152 3152 3151 3150 3150 3149 3148 3147 3146 3145 3144 3143 3141 3140 3139 3138 3136 3135 3133 3132 3130 3129 3128 3127 3125 3124 3122 3121 3119 3118 3116 3115 3114 3113 3113 3112 3112 3111 3111 3110 3110 3109 3109 3108 3108 3108 3108 3107 3107 3107 3107 3107 3108 3108 3108 3109 3109 3110 3111 3112 3113 3114 3115 3116 3116 3117 3118 3119 3121
3169 3168 3167 3166 3165 3164 3162 3161 3160 3159 3158 3157 3156 3155 3154 3153 3152 3152 3151 3150 3150 3149 3148 3147 3146 3145 3144 3143 3142 3140 3139 3138 3136 3135 3134 3132 3130 3129 3127 3126 3125 3124 3122 3120 3119 3117 3116 3114 3113 3113 3112 3111 3111 3111 3110 3109 3109 3108 3108 3107 3107 3106 3106 3106 3106 3106 3106 3106 3106 3106 3106 3106 3106 3107 3108 3109 3110 3111 3112 3114 3114 3115 3117 3118 3119
3168 3167 3166 3165 3164 3162 3161 3160 3159 3159 3158 3157 3156 3156 3155 3153 3153 3152 3151 3151 3150 3150 3149 3148 3147 3146 3144 3143 3142 3141 3140 3138 3137 3135 3134 3132 3130 3129 3127 3125 3124 3123 3121 3120 3118 3117 3115 3114 3112 3111 3111 3110 3110 3109 3109 3108 3108 3107 3107 3106 3105 3105 3105 3105 3105 3105 3105 3104 3104 3104 3104 3104 3104 3105 3106 3107 3108 3108 3110 3112 3113 3113 3114 3116 3117
3167 3166 3165 3164 3163 3161 3160 3160 3159 3158 3158 3157 3157 3156 3155 3154 3153 3152 3152 3151 3151 3150 3150 3149 3148 3147 3145 3144 3143 3142 3140 3139 3137 3135 3134 3132 3130 3129 3127 3125 3124 3122 3121 3119 3117 3116 3114 3112 3111 3110 3110 3109 3108 3108 3108 3107 3107 3106 3105 3105 3104 3104 3104 3103 3103 3104 3103 3103 3103 3103 3102 3102 3102 3102 3103 3104 3105 3106 3107 3109 3110 3111 3112 3113 3114
3166 3165 3164 3163 3162 3161 3160 3159 3159 3158 3158 3157 3157 3156 3155 3154 3153 3153 3152 3152 3152 3151 3151 3150 3149 3148 3146 3145 3144 3143 3141 3140 3138 3136 3134 3132 3130 3128 3127 3125 3124 3122 3120 3118 3117 3115 3113 3111 3110 3109 3108 3107 3107 3107 3106 3106 3106 3105 3104 3104 3103 3103 3102 3102 3102 3102 3102 3102 3102 3101 3101 3101 3100 3100 3101 3102 3103 3104 3105 3106 3107 3109 3110 3111 3112
3164 3164 3163 3162 3161 3160 3160 3159 3159 3158 3158 3157 3156 3156 3155 3155 3154 3153 3153 3153 3153 3152 3152 3151 3150 3148 3147 3146 3145 3144 3142 3140 3138 3136 3134 3132 3130 3128 3127 3125 3123 3121 3119 3117 3115 3114 3112 3110 3109 3108 3107 3106 3105 3105 3105 3104 3104 3103 3103 3103 3102 3102 3101 3101 3101 3101 3101 3101 3101 3100 3100 3100 3099 3099 3099 3099 3100 3101 3102 3103 3105 3107 3108 3109 3110
3163 3162 3162 3161 3161 3160 3159 3159 3158 3158 3157 3157 3156 3156 3155 3155 3154 3154 3154 3154 3154 3153 3152 3151 3150 3149 3148 3146 3145 3144 3142 3141 3138 3136 3134 3132 3130 3129 3127 3125 3123 3120 3118 3116 3114 3113 3111 3109 3108 3106 3106 3105 3104 3104 3103 3103 3102 3102 3101 3101 3101 3101 3100 3100 3100 3100 3100 3100 3099 3099 3099 3099 3098 3098 3097 3098 3098 3099 3100 3101 3102 3104 3105 3106 3108
3162 3162 3161 3161 3160 3159 3159 3158 3158 3158 3157 3156 3156 3156 3155 3155 3155 3155 3155 3154 3154 3153 3152 3151 3150 3149 3148 3146 3145 3144 3143 3141 3139 3137 3135 3132 3130 3128 3126 3125 3123 3120 3118 3115 3113 3112 3110 3109 3107 3106 3105 3104 3103 3103 3102 3101 3101 3100 3100 3099 3099 3099 3099 3099 3098 3098 3098 3098 3098 3098 3098 3097 3097 3097 3097 3097 3097 3098 3099 3099 3100 3101 3103 3104 3105
3161 3161 3161 3160 3160 3159 3159 3158 3158 3158 3157 3157 3156 3156 3156 3156 3155 3155 3155 3154 3153 3152 3152 3151 3150 3149 3148 3146 3145 3144 3142 3140 3139 3137 3135 3133 3130 3128 3127 3125 3122 3120 3118 3115 3113 3111 3109 3108 3107 3105 3104 3103 3103 3102 3101 3100 3100 3099 3099 3098 3097 3097 3097 3097 3097 3096 3096 3097 3097 3097 3097 3096 3096 3096 3096 3096 3096 3097 3098 3098 3099 3099 3100 3102 3103
3160 3160 3160 3159 3159 3159 3158 3158 3158 3158 3157 3157 3157 3157 3157 3156 3156 3155 3155 3154 3153 3152 3152 3151 3150 3148 3147 3146 3145 3143 3142 3140 3138 3137 3135 3132 3130 3128 3127 3125 3122 3120 3117 3115 3113 3111 3109 3107 3106 3105 3104 3103 3102 3101 3100 3099 3099 3098 3097 3097 3096 3096 3096 3096 3095 3095 3095 3095 3096 3096 3095 3095 3095 3096 3096 3095 3095 3096 3097 3097 3098 3098 3099 3100 3101
3160 3159 3159 3159 3159 3159 3158 3158 3158 3158 3157 3157 3157 3157 3157 3156 3156 3155 3155 3154 3153 3152 3151 3150 3149 3148 3147 3146 3145 3143 3142 3140 3138 3136 3134 3132 3130 3128 3126 3125 3122 3120 3118 3115 3113 3111 3109 3107 3106 3105 3104 3103 3102 3101 3100 3099 3098 3097 3096 3096 3095 3095 3095 3094 3094 3094 3094 3094 3094 3094 3095 3095 3095 3095 3095 3095 3095 3095 3095 3097 3097 3098 3099 3099 3100
3159 3159 3158 3158 3158 3158 3158 3158 3158 3158 3158 3158 3157 3157 3157 3156 3155 3155 3154 3154 3153 3152 3151 3150 3149 3148 3147 3145 3144 3143 3141 3140 3138 3136 3134 3132 3130 3128 3127 3125 3123 3121 3118 3116 3113 3111 3109 3107 3106 3105 3103 3102 3101 3100 3099 3098 3097 3097 3096 3095 3095 3094 3094 3094 3093 3093 3093 3093 3093 3093 3093 3094 3094 3094 3094 3094 3094 3094 3095 3095 3096 3097 3098 3098 3099
3159 3158 3158 3158 3158 3158 3158 3158 3158 3158 3158 3157 3157 3157 3156 3156 3155 3154 3153 3153 3152 3151 3150 3149 3148 3147 3146 3145 3144 3143 3141 3140 3138 3136 3134 3132 3130 3128 3126 3125 3123 3121 3118 3116 3113 3111 3109 3107 3106 3105 3103 3102 3101 3100 3099 3098 3097 3096 3095 3095 3094 3094 3093 3093 3093 3092 3092 3092 3092 3092 3092 3093 3093 3093 3093 3093 3093 3093 3094 3094 3094 3095 3096 3097 3098
3158 3158 3158 3158 3158 3158 3158 3158 3158 3158 3157 3157 3157 3156 3156 3155 3155 3154 3153 3152 3151 3151 3150 3149 3148 3147 3146 3145 3144 3142 3141 3140 3138 3136 3134 3132 3130 3128 3126 3125 3123 3121 3119 3116 3114 3112 3110 3108 3106 3105 3104 3102 3101 3100 3099 3098 3097 3096 3095 3095 3094 3094 3093 3093 3092 3092 3091 3091 3091 3091 3092 3092 3092 3092 3092 3092 3092 3092 3093 3093 3093 3094 3095 3095 3096
3158 3158 3157 3157 3158 3158 3158 3158 3158 3157 3157 3157 3156 3156 3155 3155 3154 3153 3152 3152 3151 3150 3150 3149 3148 3147 3146 3145 3144 3142 3141 3139 3138 3136 3134 3132 3130 3128 3126 3125 3123 3121 3119 3117 3115 3113 3111 3109 3107 3105 3104 3103 3101 3100 3099 3098 3097 3096 3095 3095 3094 3094 3093 3092 3092 3092 3091 3091 3090 3091 3091 3091 3091 3091 3091 3091 3091 3091 3092 3092 3092 3093 3094 3094 3094
3158 3157 3157 3157 3158 3158 3158 3158 3158 3157 3157 3157 3156 3155 3155 3154 3153 3153 3152 3151 3151 3150 3150 3149 3148 3147 3146 3144 3143 3142 3140 3139 3137 3136 3133 3131 3129 3128 3126 3124 3122 3120 3119 3117 3115 3113 3111 3109 3107 3106 3104 3103 3101 3100 3099 3098 3097 3096 3095 3095 3094 3093 3093 3092 3092 3092 3091 3091 3090 3090 3091 3091 3091 3091 3090 3090 3090 3091 3091 3091 3091 3092 3093 3093 3093
3157 3157 3157 3158 3158 3158 3158 3158 3157 3157 3157 3156 3155 3155 3154 3154 3153 3153 3152 3151 3151 3150 3149 3148 3147 3146 3145 3144 3143 3141 3140 3138 3137 3135 3133 3131 3129 3127 3125 3124 3122 3120 3118 3117 3115 3113 3111 3109 3107 3106 3104 3103 3101 3100 3099 3098 3097 3096 3095 3095 3094 3094 3093 3092 3092 3092 3091 3091 3091 3090 3090 3090 3090 3090 3090 3090 3090 3090 3090 3090 3091 3091 3092 3092 3093
3157 3157 3157 3157 3157 3158 3158 3157 3157 3157 3156 3156 3155 3155 3154 3154 3153 3153 3152 3151 3150 3150 3149 3148 3147 3146 3145 3144 3143 3141 3140 3138 3136 3134 3133 3131 3129 3127 3125 3123 3122 3120 3118 3116 3115 3113 3111 3110 3108 3106 3104 3102 3101 3100 3099 3098 3097 3096 3095 3095 3094 3094 3093 3093 3092 3092 3091 3091 3091 3090 3090 3090 3090 3090 3090 3089 3089 3089 3090 3090 3090 3090 3091 3091 3092
3157 3157 3157 3157 3157 3157 3157 3157 3157 3156 3156 3155 3155 3155 3154 3154 3153 3152 3151 3150 3150 3149 3148 3147 3146 3145 3144 3143 3142 3141 3139 3137 3136 3134 3132 3130 3129 3127 3125 3123 3122 3120 3118 3116 3115 3113 3111 3109 3108 3106 3104 3102 3101 3100 3099 3098 3097 3096 3095 3094 3094 3094 3093 3093 3092 3092 3092 3091 3091 3091 3090 3090 3089 3089 3089 3089 3089 3089 3089 3089 3089 3090 3090 3091 3091
3157 3157 3157 3157 3157 3157 3157 3157 3157 3156 3156 3156 3155 3155 3154 3153 3153 3152 3151 3150 3149 3148 3147 3146 3145 3144 3143 3142 3141 3140 3138 3137 3135 3134 3132 3130 3128 3127 3125 3123 3121 3119 3117 3116 3114 3113 3111 3109 3107 3105 3103 3102 3101 3100 3099 3098 3097 3096 3095 3095 3094 3094 3094 3093 3093 3092 3092 3092 3091 3091 3090 3090 3089 3089 3089 3089 3088 3088 3088 3088 3089 3089 3090 3090 3090
3156 3157 3157 3157 3157 3157 3157 3157 3156 3156 3156 3156 3155 3154 3153 3152 3152 3151 3150 3149 3148 3147 3146 3146 3145 3143 3142 3141 3140 3139 3137 3136 3135 3133 3132 3130 3128 3127 3125 3123 3121 3119 3118 3116 3115 3113 3111 3109 3107 3105 3104 3102 3100 3099 3098 3097 3097 3096 3095 3095 3094 3094 3094 3094 3093 3093 3093 3092 3092 3091 3091 3090 3090 3089 3089 3088 3088 3088 3088 3088 3088 3088 3088 3089 3089
3156 3156 3157 3157 3157 3156 3157 3157 3156 3156 3156 3156 3155 3154 3152 3151 3150 3150 3149 3148 3147 3146 3145 3144 3143 3142 3141 3140 3139 3138 3136 3135 3134 3132 3131 3129 3128 3126 3125 3123 3121 3119 3118 3116 3115 3112 3110 3108 3107 3105 3103 3102 3100 3099 3098 3097 3096 3096 3095 3095 3094 3094 3094 3094 3093 3093 3093 3092 3092 3091 3091 3090 3090 3090 3089 3089 3088 3088 3088 3087 3087 3087 3087 3087 3088
3156 3156 3156 3156 3156 3156 3157 3157 3157 3156 3156 3155 3154 3153 3152 3150 3149 3149 3148 3147 3146 3145 3144 3143 3142 3141 3140 3139 3138 3137 3135 3134 3132 3131 3130 3128 3127 3126 3124 3123 3121 3119 3117 3116 3114 3111 3109 3108 3107 3105 3103 3102 3101 3100 3098 3097 3096 3095 3094 3094 3094 3093 3093 3093 3093 3093 3093 3092 3092 3091 3091 3091 3090 3090 3089 3089 3088 3088 3087 3087 3087 3087 3087 3086 3087
3155 3156 3156 3156 3156 3156 3156 3157 3156 3156 3155 3154 3153 3152 3151 3150 3149 3148 3147 3146 3145 3144 3143 3142 3141 3140 3139 3138 3137 3135 3134 3133 3131 3130 3128 3127 3126 3125 3123 3122 3120 3118 3116 3115 3113 3111 3109 3108 3107 3105 3103 3102 3101 3099 3098 3097 3096 3094 3094 3093 3093 3092 3092 3092 3092 3092 3092 3092 3091 3091 3091 3090 3090 3090 3089 3089 3088 3088 3087 3087 3086 3086 3086 3086 3086
3155 3155 3155 3155 3156 3156 3156 3156 3156 3155 3154 3154 3153 3152 3151 3150 3149 3147 3146 3145 3144 3143 3142 3141 3140 3139 3138 3137 3135 3134 3133 3132 3130 3129 3127 3126 3125 3123 3122 3120 3119 3117 3115 3114 3112 3111 3109 3108 3106 3105 3103 3102 3100 3099 3098 3097 3095 3094 3093 3092 3092 3091 3091 3091 3091 3091 3091 3091 3091 3090 3090 3090 3090 3089 3089 3088 3088 3087 3087 3086 3086 3086 3086 3085 3085
3154 3154 3155 3155 3155 3155 3155 3155 3155 3154 3154 3153 3152 3151 3150 3149 3148 3147 3146 3145 3144 3143 3142 3141 3139 3138 3137 3135 3134 3133 3132 3130 3129 3128 3126 3125 3123 3122 3121 3119 3118 3116 3115 3113 3112 3110 3109 3108 3106 3104 3103 3101 3100 3098 3097 3096 3095 3094 3093 3092 3091 3090 3090 3090 3089 3089 3090 3090 3090 3089 3089 3089 3089 3089 3088 3088 3087 3087 3087 3086 3086 3085 3085 3085 3084
3154 3154 3154 3154 3155 3155 3155 3155 3154 3154 3153 3152 3151 3150 3149 3148 3147 3146 3146 3145 3144 3142 3141 3139 3138 3137 3136 3135 3133 3132 3131 3129 3128 3127 3125 3124 3122 3121 3120 3118 3117 3115 3114 3113 3111 3110 3109 3108 3106 3105 3103 3101 3100 3098 3097 3095 3094 3093 3092 3091 3090 3090 3089 3088 3088 3088 3088 3088 3088 3088 3088 3088 3088 3088 3088 3087 3087 3086 3086 3086 3085 3085 3085 3084 3084
3153 3153 3153 3154 3154 3154 3154 3153 3153 3152 3152 3151 3150 3149 3148 3147 3146 3146 3145 3144 3143 3142 3141 3139 3138 3136 3135 3134 3132 3131 3130 3128 3127 3126 3125 3123 3122 3120 3119 3117 3115 3114 3113 3112 3111 3110 3109 3107 3106 3105 3103 3101 3099 3098 3096 3095 3093 3092 3091 3090 3089 3089 3088 3087 3087 3087 3087 3087 3087 3087 3087 3087 3087 3087 3087 3087 3086 3086 3085 3085 3085 3084 3084 3084 3083
3153 3153 3152 3152 3153 3153 3152 3152 3152 3151 3151 3150 3149 3148 3147 3146 3146 3145 3144 3143 3142 3141 3140 3139 3138 3136 3134 3133 3132 3130 3129 3127 3126 3125 3123 3122 3121 3119 3118 3117 3115 3114 3112 3111 3110 3109 3108 3106 3105 3104 3102 3101 3099 3097 3096 3094 3093 3091 3090 3089 3088 3087 3087 3086 3086 3085 3085 3086 3086 3086 3086 3086 3086 3086 3086 3086 3085 3085 3085 3085 3084 3084 3083 3083 3083
3151 3151 3151 3151 3151 3151 3151 3151 3150 3150 3149 3149 3148 3147 3146 3145 3145 3144 3143 3142 3141 3141 3140 3139 3137 3135 3133 3132 3131 3130 3128 3126 3125 3124 3122 3121 3120 3118 3117 3116 3115 3114 3112 3111 3110 3108 3107 3105 3104 3103 3102 3100 3099 3097 3096 3094 3093 3091 3090 3089 3088 3087 3086 3086 3085 3084 3084 3084 3084 3084 3085 3085 3085 3085 3085 3085 3084 3084 3084 3084 3083 3083 3083 3082 3082
3150 3150 3150 3150 3150 3149 3149 3149 3148 3148 3148 3147 3146 3146 3145 3144 3143 3143 3142 3141 3140 3139 3138 3137 3136 3134 3133 3132 3130 3129 3127 3126 3124 3123 3121 3120 3119 3118 3116 3115 3115 3114 3112 3110 3109 3108 3106 3105 3104 3102 3101 3100 3098 3097 3096 3095 3093 3091 3090 3088 3087 3086 3085 3085 3084 3083 3083 3083 3083 3083 3083 3083 3083 3083 3083 3083 3083 3083 3083 3083 3082 3082 3082 3081 3081
3149 3149 3148 3148 3148 3148 3148 3147 3147 3146 3146 3146 3145 3144 3143 3142 3142 3141 3140 3139 3139 3138 3137 3135 3134 3133 3132 3131 3129 3128 3127 3125 3123 3122 3120 3119 3118 3117 3115 3114 3113 3113 3111 3109 3108 3107 3105 3104 3103 3102 3101 3099 3098 3096 3095 3094 3093 3092 3090 3088 3086 3085 3084 3084 3083 3082 3082 3081 3081 3082 3082 3082 3082 3082 3082 3082 3082 3082 3082 3082 3081 3081 3081 3081 3080
3148 3148 3147 3147 3147 3146 3146 3146 3145 3145 3145 3144 3143 3142 3141 3141 3140 3139 3138 3138 3137 3136 3135 3134 3132 3131 3130 3129 3128 3127 3126 3124 3123 3121 3120 3118 3117 3115 3114 3113 3112 3111 3110 3108 3107 3105 3104 3103 3102 3101 3100 3099 3097 3096 3094 3093 3092 3091 3089 3088 3086 3085 3084 3083 3082 3081 3081 3080 3080 3080 3080 3080 3080 3080 3080 3080 3080 3080 3080 3080 3080 3080 3080 3080 3079
3146 3146 3145 3145 3145 3145 3144 3144 3143 3143 3143 3143 3142 3140 3139 3139 3138 3137 3137 3136 3135 3134 3133 3132 3130 3129 3128 3127 3127 3126 3125 3123 3121 3120 3119 3117 3116 3114 3113 3112 3111 3110 3108 3107 3106 3104 3103 3102 3101 3100 3099 3098 3096 3095 3093 3092 3091 3090 3089 3087 3085 3084 3083 3082 3081 3080 3079 3079 3079 3078 3078 3078 3078 3078 3078 3078 3079 3079 3078 3078 3078 3079 3078 3078 3078
3145 3144 3144 3143 3143 3143 3142 3142 3141 3141 3141 3140 3139 3138 3137 3137 3136 3135 3134 3134 3133 3132 3131 3130 3128 3127 3126 3125 3125 3124 3123 3121 3120 3118 3117 3116 3115 3113 3112 3111 3110 3108 3107 3106 3104 3103 3102 3100 3099 3098 3097 3097 3095 3094 3092 3091 3089 3089 3088 3086 3085 3083 3082 3081 3080 3079 3078 3078 3077 3077 3076 3076 3076 3076 3076 3077 3077 3077 3077 3077 3077 3077 3077 3077 3076
3143 3143 3143 3142 3142 3141 3140 3140 3139 3139 3138 3138 3137 3136 3135 3135 3134 3133 3132 3132 3131 3130 3129 3127 3127 3126 3124 3123 3123 3122 3121 3119 3118 3117 3116 3114 3113 3112 3110 3109 3108 3107 3106 3104 3103 3101 3100 3099 3098 3097 3096 3095 3094 3093 3092 3090 3088 3087 3086 3085 3084 3082 3081 3080 3079 3078 3077 3076 3076 3075 3075 3075 3075 3075 3075 3075 3075 3075 3075 3075 3075 3075 3075 3075 3075
3142 3142 3141 3141 3140 3139 3139 3138 3137 3136 3136 3135 3135 3134 3133 3132 3131 3130 3130 3129 3129 3128 3126 3125 3125 3124 3123 3122 3121 3120 3119 3117 3116 3115 3114 3113 3111 3110 3109 3108 3106 3105 3104 3103 3101 3100 3099 3097 3096 3095 3094 3093 3093 3092 3091 3089 3087 3086 3085 3084 3082 3080 3079 3078 3077 3076 3076 3075 3074 3074 3073 3073 3073 3073 3073 3073 3073 3073 3073 3074 3074 3073 3073 3073 3073
3140 3140 3139 3139 3138 3137 3136 3136 3135 3134 3134 3133 3132 3131 3130 3130 3129 3128 3127 3127 3126 3125 3124 3124 3123 3122 3121 3120 3119 3118 3117 3116 3115 3113 3112 3111 3110 3108 3107 3106 3105 3104 3103 3101 3100 3099 3097 3096 3094 3093 3093 3092 3091 3090 3089 3088 3086 3085 3084 3083 3081 3079 3078 3077 3076 3075 3074 3074 3073 3072 3072 3072 3071 3071 3071 3071 3071 3071 3072 3072 3072 3072 3072 3071 3071
3139 3138 3138 3137 3136 3135 3134 3133 3133 3132 3131 3130 3129 3128 3128 3127 3127 3126 3125 3124 3124 3123 3122 3122 3121 3120 3119 3118 3117 3116 3115 3114 3113 3112 3111 3109 3108 3107 3106 3105 3103 3102 3101 3100 3098 3097 3096 3094 3093 3092 3091 3090 3089 3089 3088 3087 3085 3084 3083 3082 3080 3079 3077 3076 3075 3074 3073 3072 3072 3071 3071 3070 3070 3070 3070 3070 3070 3070 3070 3070 3070 3070 3070 3070 3070
3137 3136 3136 3135 3134 3133 3132 3131 3130 3129 3128 3127 3127 3126 3125 3125 3124 3124 3123 3122 3122 3121 3121 3120 3119 3118 3117 3116 3115 3115 3114 3113 3112 3110 3109 3108 3107 3106 3105 3103 3102 3100 3099 3098 3097 3095 3094 3093 3091 3090 3089 3088 3088 3087 3086 3085 3084 3083 3081 3080 3079 3078 3076 3075 3074 3073 3072 3071 3071 3070 3070 3069 3069 3068 3068 3068 3068 3068 3068 3068 3068 3068 3068 3068 3068
3134 3134 3133 3132 3131 3131 3130 3129 3128 3127 3126 3125 3124 3124 3123 3122 3121 3121 3120 3119 3119 3119 3118 3118 3117 3116 3115 3114 3113 3113 3112 3111 3110 3108 3107 3106 3105 3104 3103 3102 3100 3099 3097 3096 3094 3093 3092 3091 3089 3088 3087 3086 3085 3085 3084 3083 3082 3081 3080 3079 3078 3077 3076 3074 3073 3072 3071 3070 3069 3069 3069 3068 3068 3067 3067 3067 3067 3066 3066 3066 3066 3066 3066 3066 3066
3132 3132 3131 3130 3129 3128 3128 3127 3126 3125 3124 3123 3122 3121 3120 3119 3119 3118 3118 3117 3116 3116 3116 3115 3114 3113 3113 3112 3111 3110 3109 3109 3108 3106 3106 3105 3104 3102 3101 3100 3099 3097 3096 3094 3092 3091 3090 3089 3088 3086 3085 3084 3083 3083 3082 3081 3080 3079 3078 3077 3076 3075 3074 3073 3072 3071 3070 3069 3068 3068 3068 3067 3066 3066 3066 3065 3065 3065 3065 3065 3065 3065 3064 3065 3065
3129 3129 3128 3128 3127 3126 3125 3125 3124 3123 3122 3121 3120 3119 3118 3117 3117 3116 3115 3114 3114 3113 3113 3112 3111 3111 3110 3109 3108 3108 3107 3106 3105 3104 3103 3102 3101 3100 3099 3097 3096 3095 3094 3093 3091 3089 3088 3087 3086 3084 3083 3082 3081 3080 3080 3079 3078 3078 3076 3075 3074 3073 3072 3072 3071 3070 3069 3068 3067 3067 3066 3066 3065 3065 3065 3064 3064 3063 3063 3063 3063 3063 3063 3063 3063
3127 3127 3126 3125 3124 3124 3123 3122 3121 3121 3120 3119 3118 3117 3116 3115 3115 3114 3113 3112 3111 3111 3110 3110 3109 3108 3107 3106 3106 3105 3104 3103 3103 3102 3101 3100 3099 3098 3097 3095 3094 3093 3092 3090 3089 3088 3086 3085 3083 3082 3081 3080 3079 3079 3078 3077 3076 3076 3075 3074 3073 3072 3071 3070 3070 3069 3068 3067 3066 3066 3065 3065 3064 3064 3063 3063 3062 3062 3062 3062 3062 3062 3062 3061 3061